Location: Pasadena, ca
(34.1243°N, 118.1037°W)
Time: 04:33:54
(UTC-08:00)

Tiangong 2 - Pass Details

Date: 11 November 2017
Orbit: 386 x 392 km, 42.8° (Epoch: 21 November)

Event Time Altitude Azimuth Distance (km) Brightness Sun altitude
Rises 17:42:40 0° 302° (WNW) 2,273 5.7 -11.1°
Reaches altitude 10° 17:44:48 10° 309° (NW) 1,415 4.5 -11.5°
Maximum altitude 17:47:53 45° 23° (NNE) 539 1.5 -12.1°
Enters shadow 17:49:35 22° 87° (E) 899 2.3 -12.4°
